Location: Taio
(46.3224°N, 11.0658°E)
Time: 19:11:32
(UTC+01:00)

ISS - Pass Details

Date: 27 February 2019
Orbit: 406 x 411 km, 51.6° (Epoch: 21 March)

Event Time Altitude Azimuth Distance (km) Brightness Sun altitude
Exits shadow 04:45:21 22° 135° (SE) 954 -1.7 -23.8°
Drops below altitude 10° 04:47:50 10° 86° (E) 1,465 0.1 -23.4°
Sets 04:50:13 0° 70° (ENE) 2,330 1.5 -23.0°
